Mount Holly, NJ

11:52 AM EDT on August 19, 2017 (GMT -0400)
South Jersey Regional

Weather History for KVAY - March, 2013

Change the Weather History Date:

Wednesday, March 13, 2013

  Actual Average (KPNE) Record (KPNE)
Temperature  
Mean Temperature 44 °F -  
Max Temperature 50 °F 47 °F 78 °F (2006)
Min Temperature 37 °F 30 °F 18 °F (2017)
Degree Days  
Heating Degree Days 22    
Moisture  
Dew Point 25 °F    
Average Humidity 50    
Maximum Humidity 65    
Minimum Humidity 33    
Precipitation  
Precipitation 0.00 in - - ()
Sea Level Pressure  
Sea Level Pressure 29.90 in    
Wind  
Wind Speed 9 mph (WNW)    
Max Wind Speed 18 mph    
Max Gust Speed 29 mph    
Visibility 10 miles    
Events      
Averages and records for this station are not official NWS values.
T = Trace of Precipitation, MM = Missing Value Source: NWS Daily Summary

Daily Weather History Graph

Daily Weather History Graph

Search for Another Location

Airport or City:

Trip Planner

Search our weather history database for the weather conditions in past years. The results will help you decide how hot, cold, wet, or windy it might be!

Date:

Astronomy

Mar. 13, 2013 Rise Set
Actual Time 7:13 AM EDT 7:04 PM EDT
Civil Twilight 6:46 AM EDT 7:31 PM EDT
Nautical Twilight 6:15 AM EDT 8:02 PM EDT
Astronomical Twilight 5:43 AM EDT 8:34 PM EDT
Moon 7:52 AM EDT (3/13) 9:18 PM EDT (3/13)
Length of Visible Light 12h 44m
Length of Day
11h 50m
Waxing Crescent, 4% of the Moon is Illuminated
Mar 13
Waxing Crescent
Mar 19
First Quarter
Mar 27
Full
Apr 3
Last Quarter
Apr 10
New

Hourly Weather History & Observations

Time (EDT) Temp. Windchill Dew Point Humidity Pressure Visibility Wind Dir Wind Speed Gust Speed Precip Events Conditions
12:54 AM 43.0 °F 37.2 °F 32.0 °F 65% 29.88 in 10.0 mi WNW 10.4 mph - N/A   Clear
2:54 AM 41.0 °F 37.1 °F 28.9 °F 62% 29.89 in 10.0 mi WNW 5.8 mph 18.4 mph N/A   Clear
3:54 AM 39.9 °F 35.1 °F 27.0 °F 60% 29.89 in 10.0 mi NW 6.9 mph - N/A   Clear
4:54 AM 39.9 °F 35.8 °F 26.1 °F 58% 29.90 in 10.0 mi WNW 5.8 mph - N/A   Clear
6:54 AM 39.0 °F 35.7 °F 27.0 °F 62% 29.92 in 10.0 mi West 4.6 mph - N/A   Clear
7:54 AM 39.0 °F 34.8 °F 27.0 °F 62% 29.93 in 10.0 mi West 5.8 mph - N/A   Clear
8:54 AM 42.1 °F 36.1 °F 27.0 °F 55% 29.93 in 10.0 mi WNW 10.4 mph - N/A   Clear
9:54 AM 43.0 °F 37.7 °F 24.1 °F 47% 29.92 in 10.0 mi NW 9.2 mph 19.6 mph N/A   Clear
10:54 AM 45.0 °F 39.3 °F 23.0 °F 42% 29.92 in 10.0 mi WNW 11.5 mph 18.4 mph N/A   Clear
11:54 AM 46.0 °F 41.9 °F 25.0 °F 44% 29.90 in 10.0 mi WNW 8.1 mph - N/A   Clear
12:54 PM 48.0 °F - 24.1 °F 39% 29.88 in 10.0 mi WSW 11.5 mph 23.0 mph N/A   Clear
1:54 PM 48.9 °F - 21.9 °F 35% 29.86 in 10.0 mi West 10.4 mph 17.3 mph N/A   Partly Cloudy
2:54 PM 48.0 °F - 21.0 °F 34% 29.85 in 10.0 mi WSW 10.4 mph 21.9 mph N/A   Overcast
3:54 PM 48.9 °F - 21.0 °F 33% 29.84 in 10.0 mi West 12.7 mph 23.0 mph N/A   Mostly Cloudy
4:54 PM 46.0 °F 38.8 °F 25.0 °F 44% 29.86 in 10.0 mi West 18.4 mph 28.8 mph N/A   Overcast
5:54 PM 43.0 °F 38.8 °F 32.0 °F 65% 29.88 in 10.0 mi NW 6.9 mph - 0.00 in   Mostly Cloudy
6:54 PM 44.1 °F 40.8 °F 27.0 °F 51% 29.89 in 10.0 mi Variable 5.8 mph - N/A   Mostly Cloudy
7:54 PM 43.0 °F 38.2 °F 25.0 °F 49% 29.90 in 10.0 mi West 8.1 mph - N/A   Clear
8:54 PM 42.1 °F 34.9 °F 23.0 °F 47% 29.92 in 10.0 mi West 13.8 mph 25.3 mph N/A   Scattered Clouds
9:54 PM 39.9 °F 33.9 °F 25.0 °F 55% 29.94 in 10.0 mi West 9.2 mph 18.4 mph N/A   Clear
10:54 PM 39.0 °F 32.3 °F 21.9 °F 50% 29.96 in 10.0 mi WNW 10.4 mph 20.7 mph N/A   Partly Cloudy
11:54 PM 37.0 °F 29.8 °F 19.0 °F 48% 29.96 in 10.0 mi WNW 10.4 mph 25.3 mph N/A   Clear